Upington, South Africa

1:57 AM SAST on May 25, 2017 (GMT +0200)
Upington

Weather History for FAUP - November, 2011

Change the Weather History Date:

Wednesday, November 30, 2011

  Actual Average Record
Temperature  
Mean Temperature 82 °F -  
Max Temperature 101 °F 92 °F 106 °F (2015)
Min Temperature 63 °F 63 °F 55 °F (1996)
Cooling Degree Days 17    
Growing Degree Days 32 (Base 50)    
Moisture  
Dew Point 51 °F    
Average Humidity 39    
Maximum Humidity 82    
Minimum Humidity 9    
Precipitation  
Precipitation 0.01 in 0.02 in - ()
Sea Level Pressure  
Sea Level Pressure 29.92 in    
Wind  
Wind Speed 10 mph ()    
Max Wind Speed 23 mph    
Max Gust Speed 37 mph    
Visibility 5.8 miles    
Events Rain , Thunderstorm    
Averages and records for this station are not official NWS values.
T = Trace of Precipitation, MM = Missing Value Source: Averaged Metar Reports

Daily Weather History Graph

Daily Weather History Graph

Search for Another Location

Airport or City:

Trip Planner

Search our weather history database for the weather conditions in past years. The results will help you decide how hot, cold, wet, or windy it might be!

Date:

Astronomy

Nov. 30, 2011 Rise Set
Actual Time 5:29 AM SAST 7:17 PM SAST
Civil Twilight 5:03 AM SAST 7:43 PM SAST
Nautical Twilight 4:31 AM SAST 8:15 PM SAST
Astronomical Twilight 3:58 AM SAST 8:49 PM SAST
Moon 10:33 AM SAST (11/30) 11:46 PM SAST (11/30)
Length of Visible Light 14h 40m
Length of Day
13h 47m
Waxing Crescent, 30% of the Moon is Illuminated
Nov 30
Waxing Crescent
Dec 2
First Quarter
Dec 10
Full
Dec 18
Last Quarter
Dec 24
New

Hourly Weather History & Observations

Time (SAST) Temp. Heat Index Dew Point Humidity Pressure Visibility Wind Dir Wind Speed Gust Speed Precip Events Conditions
12:00 AM 64.4 °F - 57.2 °F 77% 29.98 in - NNE 4.6 mph - N/A   Unknown
1:00 AM 64.4 °F - 57.2 °F 77% 29.98 in 6.2 mi ENE 8.1 mph - N/A   Partly Cloudy
2:00 AM 64 °F - 58 °F 75%  in 25 mi ENE 8.1 mph - -  
2:00 AM 62.6 °F - 57.2 °F 82% 29.98 in - ENE 6.9 mph - N/A   Clear
3:00 AM 66.2 °F - 53.6 °F 64% 29.98 in - NE 10.4 mph - N/A   Clear
4:00 AM 66.2 °F - 53.6 °F 64% 29.95 in - NE 6.9 mph - N/A   Clear
5:00 AM 69 °F - 53 °F 47%  in 25 mi NNE 4.6 mph - -  
5:00 AM 68.0 °F - 51.8 °F 56% 29.95 in - NNE 3.5 mph - N/A   Clear
6:00 AM 68.0 °F - 53.6 °F 60% 29.98 in - North 2.3 mph - N/A   Clear
6:42 AM 73.4 °F - 51.8 °F 47% 29.98 in - NNE 6.9 mph - N/A   Clear
7:00 AM 73.4 °F - 51.8 °F 47% 29.98 in - NNE 8.1 mph - N/A   Clear
7:24 AM 77.0 °F - 51.8 °F 41% 29.98 in - North 11.5 mph - N/A   Clear
8:00 AM 79 °F - 52 °F 29%  in 25 mi North 17.3 mph - -  
8:00 AM 78.8 °F - 51.8 °F 39% 29.98 in - North 17.3 mph - N/A   Clear
9:00 AM 82.4 °F - 51.8 °F 35% 29.98 in - North 23.0 mph - N/A   Clear
10:00 AM 87.8 °F 85.7 °F 53.6 °F 31% 29.95 in - NNW 20.7 mph - N/A   Clear
11:00 AM 90 °F - 53 °F 19%  in 25 mi North 19.6 mph - -  
11:00 AM 89.6 °F - 51.8 °F 27% 29.95 in - North 18.4 mph - N/A   Clear
12:00 PM 93.2 °F - 51.8 °F 24% 29.92 in 6.2 mi NNW 18.4 mph - N/A   Partly Cloudy
1:00 PM 96.8 °F - 50.0 °F 20% 29.89 in 6.2 mi NNW 18.4 mph - N/A   Partly Cloudy
2:00 PM 98 °F - 45 °F 9%  in 25 mi NNW 16.1 mph - -   Partly Cloudy
2:00 PM 96.8 °F - 44.6 °F 17% 29.86 in 6.2 mi NNW 15.0 mph - N/A   Scattered Clouds
3:00 PM 96.8 °F - 46.4 °F 18% 29.83 in 6.2 mi NNW 16.1 mph 27.6 mph N/A   Partly Cloudy
4:00 PM 95.0 °F - 39.2 °F 14% 29.80 in 3.7 mi NNW 13.8 mph - N/A Rain , Thunderstorm Thunderstorms and Rain
4:02 PM 96.8 °F - 42.8 °F 16% 29.80 in 3.7 mi NNW 15.0 mph 27.6 mph N/A Rain , Thunderstorm Thunderstorms and Rain
4:28 PM 89.6 °F - 51.8 °F 27% 29.80 in 3.7 mi North 13.8 mph 36.8 mph N/A Rain , Thunderstorm Thunderstorms and Rain
5:00 PM 87 °F - 52 °F 20%  in 4 mi NNW 21.9 mph - - Thunderstorm Thunderstorm
5:00 PM 86.0 °F - 51.8 °F 31% 29.80 in 3.7 mi NNW 21.9 mph 33.4 mph N/A Thunderstorm Thunderstorm
6:00 PM 86.0 °F 84.5 °F 55.4 °F 35% 29.80 in 3.7 mi NW 10.4 mph - N/A Rain , Thunderstorm Thunderstorms and Rain
8:00 PM 78 °F - 59 °F 41%  in 16 mi NNE 4.6 mph - -   Scattered Clouds
8:00 PM 77.0 °F - 57.2 °F 50% 29.86 in 6.2 mi NNE 3.5 mph - N/A   Scattered Clouds
9:00 PM 75.2 °F - 57.2 °F 53% 29.86 in - NNW 4.6 mph - N/A   Unknown
10:00 PM 80.6 °F - 41.0 °F 24% 29.92 in - South 16.1 mph - N/A   Unknown
11:00 PM 75 °F - 39 °F 17%  in - South 8.1 mph - -  
11:00 PM 75.2 °F - 39.2 °F 27% 29.98 in - South 8.1 mph - N/A   Unknown